{"data":{"norad_id":50498,"epoch":"2026-09-20T03:39:57.340800Z","epoch_age_seconds":55883,"freshness":"FRESH","line1":"1 50498U 21132AF  26263.15274700  .00000030  00000+0  42382-4 0  9995","line2":"2 50498  87.9171 316.5781 0002512 108.3826 251.7580 13.18684717234104","mean_motion":13.18684717,"eccentricity":0.0002512,"inclination_deg":87.9171,"raan_deg":316.5781,"arg_perigee_deg":108.3826,"mean_anomaly_deg":251.758,"bstar":4.2382e-5,"rev_number":23410,"period_min":109.19971858596,"perigee_km":1187.8469828699,"apogee_km":1191.6490883117,"semimajor_km":7567.8850355908,"source":"CELESTRAK","updated_at":"2026-09-20T09:00:44.705974Z"}}